Regional Weather Roundup
Issued by NWS

Home | Current Version | Previous Version | Text Only | Print | Product List | Glossary On
Versions: 1 2 3 4 5 6 7 8 9 10 11 12 13 14 15 16 17 18 19 20 21 22 23 24 25 26 27 28 29 30 31 32 33 34 35 36 37 38 39 40 41 42 43 44 45 46 47 48 49 50
000
ASUS44 KLIX 031610
RWRLA
LOUISIANA WEATHER ROUNDUP
NATIONAL WEATHER SERVICE NEW ORLEANS LA
1000 AM CST TUE MAR 03 2015

NOTE: "FAIR" INDICATES FEW OR NO CLOUDS BELOW 12,000 FEET WITH NO
      SIGNIFICANT WEATHER AND/OR OBSTRUCTIONS TO VISIBILITY.
      SKY/WX - SKY CONDITION AND SIGNIFICANT WEATHER.
      TMP - AIR TEMPERATURE.    DP   - DEWPOINT TEMPERATURE.
      RH  - RELATIVE HUMIDITY.  PRES - PRESSURE.
      HX  - HEAT INDEX.         WCI  - WIND CHILL INDEX.

*  THESE STATIONS ARE NOT NWS OR FAA STATIONS AND ARE NOT UNDER
   NWS QUALITY CONTROL.

LAZ040-048-061>063-065-066-069-031700-
SOUTHEAST LOUISIANA

CITY           SKY/WX    TMP DP  RH WIND       PRES   REMARKS
N.O. AUDUBON     N/A     72  72 100 MISG        N/A
N.O. INTL ARPT PTSUNNY   74  68  81 S8        30.13F
N.O. LAKEFRONT PTSUNNY   75  67  76 SE13      30.13F
SLIDELL        PTSUNNY   70  68  93 SE8       30.14F
BATON ROUGE    CLOUDY    69  68  96 SE7       30.11S FOG
BOOTHVILLE     MOSUNNY   74  69  85 SE9       30.15S
BELLE CHASSE   PTSUNNY   71  67  87 SE10      30.12F
BOGALUSA*        N/A     69  66  91 S6        30.16S FOG
GALLIANO*      MOSUNNY   76  70  81 SE10      30.13S
NEW ROADS*     CLOUDY    66  65  98 SE9       30.11S FOG
GONZALES*      CLOUDY    71  71 100 SE8       30.11S
HAMMOND*       NOT AVBL
HOUMA*         MOSUNNY   75  70  83 S14       30.12
PORT FOURCHON* MOSUNNY   72  68  88 SE12G18   30.16S

$$

LAZ041-044-053-054-031700-
SOUTHWEST LOUISIANA

CITY           SKY/WX    TMP DP  RH WIND       PRES   REMARKS
LAKE CHARLES   CLOUDY    64  63  96 SE8       30.07F FOG
LAFAYETTE      FOG       65  65 100 SE5       30.09F VSB 3/4
PATTERSON      CLOUDY    72  70  94 SE9       30.10F
SALT POINT       N/A     69  69 100 SE9       30.09S
NEW IBERIA     CLOUDY    70  68  93 SE7       30.09F FOG
CHENAULT AIRPK CLOUDY    61  61 100 SE5       30.08S FOG

$$

LAZ027-028-031700-
CENTRAL LOUISIANA

CITY           SKY/WX    TMP DP  RH WIND       PRES   REMARKS
FORT POLK      FOG       59  58  98 SE6       30.07S VSB 1
ALEXANDRIA INT FOG       53  53 100 SE7       30.07F VSB 1/2
ALEXANDRIA     CLOUDY    55  53  93 S3        30.09F FOG

$$

LAZ001-002-031700-
NORTHWEST LOUISIANA

CITY           SKY/WX    TMP DP  RH WIND       PRES   REMARKS
SHREVEPORT     FOG       49  48  97 SE5       30.04F VSB 1/4
BARKSDALE AFB  FOG       48  48 100 SE6       30.05F VSB 1/2
DTN SHREVEPORT FOG       47  46  97 E5        30.05F VSB 1/4

$$

LAZ014-016-031700-
NORTHEAST LOUISIANA

CITY           SKY/WX    TMP DP  RH WIND       PRES   REMARKS
MONROE         FOG       49  49 100 S3        30.10S VSB 1/2
TALLULAH       CLOUDY    58  57  97 S5        30.10S

$$



USA.gov is the U.S. government's official web portal to all federal, state and local government web resources and services.